Location: Asheville, NC
(35.6000°N, 82.5500°W)
Time: 23:29:12
(UTC-04:00)

CUTE 1.7 + AOD 2 - Pass Details

Date: 05 January 2018
Orbit: 594 x 613 km, 97.5° (Epoch: 17 June)

Event Time Altitude Azimuth Distance (km) Brightness Sun altitude
Rises 06:32:29 0° 30° (NNE) 2,862 ? -13.5°
Reaches altitude 10° 06:35:13 10° 48° (NE) 1,950 ? -13.0°
Maximum altitude 06:38:15 19° 94° (E) 1,441 ? -12.4°
Drops below altitude 10° 06:41:15 10° 140° (SE) 1,931 ? -11.8°
Sets 06:43:56 0° 158° (SSE) 2,824 ? -11.3°
